{"data":{"norad_id":58075,"epoch":"2026-05-25T00:48:58.471776Z","epoch_age_seconds":82771,"freshness":"FRESH","line1":"1 58075U 23160A   26145.03401009  .00008089  00000+0  30316-3 0  9992","line2":"2 58075  43.0030   6.5726 0001747 274.1687  85.8965 15.27577707144623","mean_motion":15.27577707,"eccentricity":0.0001747,"inclination_deg":43.003,"raan_deg":6.5726,"arg_perigee_deg":274.1687,"mean_anomaly_deg":85.8965,"bstar":0.00030316,"rev_number":14462,"period_min":94.266890214574,"perigee_km":481.85731170466,"apogee_km":484.25461252563,"semimajor_km":6861.1929621151,"source":"CELESTRAK","updated_at":"2026-05-25T13:38:18.503538Z"}}